Location: Freistadt
(48.5112°N, 14.5013°E)
Time: 06:48:42
(UTC+02:00)

CUBEBUG 2 - Pass Details

Date: 05 April 2023
Orbit: 577 x 686 km, 97.8° (Epoch: 29 May)

Event Time Altitude Azimuth Distance (km) Brightness Sun altitude
Rises 05:08:01 0° 0° (N) 3,063 ? -14.1°
Reaches altitude 10° 05:10:57 10° 341° (NNW) 2,132 ? -13.7°
Maximum altitude 05:13:57 17° 301° (WNW) 1,676 ? -13.2°
Enters shadow 05:15:32 15° 277° (W) 1,801 ? -13.0°
